[[{"header":{"parameterUnit":"m.s-1","parameterCategory":1,"la1":30.2992,"la2":30.254,"lo1":-89.0895,"lo2":-89.0443,"dy":0.0025,"dx":0.0025,"nx":19,"ny":19,"refTime":"2026-05-16T09:00:00:Z","depth":0,"parameterNumber":2,"parameterNumberName":"U-component_of_WINDS"},"data":[0,0,0,-4.6977,-4.698,-4.7149,-4.715,-4.7366,-4.7368,0,0,0,0,0,0,0,0,0,0,0,-4.6928,-4.6929,-4.6976,-4.6981,-4.7149,-4.715,-4.7366,-4.7368,0,0,0,0,0,0,0,0,0,0,0,-4.6927,-4.6929,-4.6931,-4.6981,-4.7149,-4.715,-4.7365,-4.7238,0,0,0,0,0,0,0,0,0,0,-4.7074,-4.703,-4.6928,-4.6931,-4.6982,-4.7149,-4.715,-4.7232,-4.7246,-4.729,0,-4.7331,0,-4.7353,-4.7383,-4.7383,0,0,0,-4.698,-4.7018,-4.7063,-4.6931,-4.6984,-4.7148,-4.7073,-4.7239,-4.7255,-4.7309,-4.7334,-4.7342,-4.7357,-4.7384,-4.7385,-4.7647,-4.7648,0,0,-4.697,-4.6958,-4.7052,-4.7073,-4.7048,-4.7067,-4.7078,-4.7249,-4.7275,-4.7335,-4.7347,-4.736,-4.7385,-4.7387,-4.7646,-4.7647,0,0,0,-4.6944,-4.6952,-4.6992,-4.7064,-4.7094,-4.7072,-4.7085,-4.7267,-4.7282,-4.7349,-4.7363,-4.7387,-4.7389,-4.7644,-4.7646,-4.7696,0,0,0,-4.6939,-4.6937,-4.6988,-4.6983,-4.7091,-4.7183,-4.7099,-4.727,-4.7289,-4.7362,-4.7387,-4.7392,-4.7643,-4.7645,-4.7691,-4.772,0,0,0,-4.6916,-4.6934,-4.6959,-4.6982,-4.7054,-4.7181,-4.7205,-4.7274,-4.7298,-4.7384,-4.7392,-4.7642,-4.7645,-4.7687,-4.7714,-4.7784,0,0,0,-4.6889,-4.7001,-4.696,-4.709,-4.7052,-4.7211,-4.7204,-4.7322,-4.7402,-4.7388,-4.7643,-4.7646,-4.7686,-4.771,-4.778,-4.784,-4.7864,0,0,-4.7023,-4.7016,-4.7094,-4.7062,-4.7225,-4.7186,-4.7356,-4.7441,-4.746,-4.7583,-4.759,-4.7693,-4.7713,-4.7783,-4.8009,-4.8028,0,0,0,-4.7133,-4.7188,-4.7234,-4.7309,-4.7377,-4.7437,-4.7497,-4.7528,-4.7634,-4.7521,-4.7739,-4.7752,-4.7793,-4.7822,-4.7838,-4.7874,-4.766,-4.7659,-4.7659,-4.7303,-4.7323,-4.7452,-4.7492,-4.7566,-4.7627,-4.7688,-4.7741,-4.7739,-4.779,-4.7825,-4.796,-4.7993,-4.8006,-4.8043,-4.7861,-4.7861,-4.7861,-4.7861,-4.7499,-4.758,-4.7576,-4.77,-4.772,-4.7824,-4.7888,-4.7883,-4.7983,-4.7934,-4.7972,-4.7915,-4.8026,-4.8059,-4.7865,-4.7865,-4.7864,-4.7864,-4.7863,-4.7611,-4.7653,-4.769,-4.7802,-4.7886,-4.7923,-4.8019,-4.8034,-4.805,-4.8087,-4.8125,-4.8125,-4.8124,-4.8105,-4.8105,-4.8106,-4.8106,-4.8107,-4.8107,-4.7711,-4.7751,-4.783,-4.7913,-4.7963,-4.8032,-4.8096,-4.8147,-4.8206,-4.8209,-4.821,-4.8201,-4.8035,-4.799,-4.8114,-4.8113,-4.8112,-4.8111,-4.8111,-4.7898,-4.7858,-4.798,-4.8031,-4.8129,-4.8211,-4.8231,-4.8332,-4.8376,-4.8423,-4.8408,-4.8283,-4.8276,-4.8264,-4.8227,-4.8404,-4.8404,-4.8405,-4.8405,-4.799,-4.799,-4.8117,-4.8197,-4.8278,-4.8308,-4.8445,-4.8497,-4.8543,-4.8572,-4.8549,-4.8504,-4.849,-4.8492,-4.8474,-4.844,-4.8667,-4.8668,-4.8668,-4.8105,-4.8113,-4.8226,-4.8272,-4.835,-4.8417,-4.8545,-4.8638,-4.8683,-4.8679,-4.8594,-4.8583,-4.8509,-4.8485,-4.8475,-4.8447,-4.8385,0,0]},{"header":{"parameterUnit":"m.s-1","parameterCategory":1,"la1":30.2992,"la2":30.254,"lo1":-89.0895,"lo2":-89.0443,"dy":0.0025,"dx":0.0025,"nx":19,"ny":19,"refTime":"2026-05-16T09:00:00:Z","depth":0,"parameterNumber":3,"parameterNumberName":"V-component_of_WINDS"},"data":[0,0,0,3.863,3.8631,3.8696,3.8697,3.8787,3.8788,0,0,0,0,0,0,0,0,0,0,0,3.8616,3.8616,3.863,3.8631,3.8696,3.8697,3.8787,3.8788,0,0,0,0,0,0,0,0,0,0,0,3.8615,3.8616,3.8617,3.8632,3.8696,3.8697,3.8786,3.8734,0,0,0,0,0,0,0,0,0,0,3.867,3.8662,3.8616,3.8617,3.8632,3.8696,3.8697,3.8732,3.8738,3.876,0,3.8784,0,3.8787,3.8794,3.8795,0,0,0,3.8627,3.8658,3.8671,3.8617,3.8633,3.8696,3.8666,3.8735,3.8742,3.8768,3.8785,3.8788,3.8789,3.8795,3.8795,3.8947,3.8948,0,0,3.8623,3.863,3.8666,3.8675,3.8667,3.8664,3.8668,3.8739,3.8756,3.8785,3.879,3.879,3.8795,3.8796,3.8946,3.8947,0,0,0,3.8616,3.8627,3.8639,3.8672,3.8683,3.8666,3.867,3.8753,3.8756,3.8791,3.8791,3.8796,3.8797,3.8945,3.8947,3.9,0,0,0,3.8613,3.8623,3.8637,3.8642,3.8682,3.8719,3.8683,3.8752,3.8759,3.8791,3.8796,3.8798,3.8944,3.8946,3.8996,3.9023,0,0,0,3.8609,3.8623,3.8634,3.8642,3.8671,3.8718,3.8725,3.8753,3.876,3.8795,3.8798,3.8944,3.8946,3.8993,3.9018,3.9066,0,0,0,3.8607,3.8679,3.8635,3.8716,3.867,3.8751,3.8725,3.8784,3.882,3.8797,3.8944,3.8947,3.8992,3.9015,3.9063,3.9108,3.9127,0,0,3.8701,3.869,3.8738,3.8701,3.8791,3.8741,3.8839,3.8864,3.886,3.8918,3.8922,3.8998,3.9018,3.9065,3.9235,3.925,0,0,0,3.877,3.8804,3.8826,3.8862,3.8885,3.8907,3.8917,3.8927,3.8977,3.8892,3.9028,3.9039,3.9067,3.9088,3.9101,3.9125,3.8957,3.8957,3.8956,3.8912,3.8906,3.8984,3.8986,3.9021,3.9032,3.906,3.9074,3.9055,3.9088,3.9105,3.9209,3.9234,3.9244,3.9268,3.9128,3.9128,3.9129,3.9129,3.905,3.9098,3.9074,3.9141,3.9134,3.9189,3.9203,3.9188,3.9238,3.9195,3.9219,3.9171,3.9261,3.9282,3.9133,3.9132,3.9131,3.9131,3.9131,3.9143,3.9164,3.9177,3.923,3.9271,3.927,3.932,3.9311,3.9302,3.9326,3.9343,3.9342,3.934,3.9335,3.9335,3.9336,3.9336,3.9336,3.9336,3.9233,3.9246,3.929,3.9323,3.9346,3.9375,3.9388,3.941,3.9431,3.942,3.942,3.9399,3.9271,3.924,3.9342,3.9341,3.934,3.934,3.9339,3.9375,3.9343,3.9411,3.9435,3.9473,3.9515,3.9503,3.9549,3.9565,3.959,3.9564,3.9472,3.9459,3.9448,3.9422,3.9565,3.9565,3.9565,3.9565,3.9453,3.9447,3.9516,3.9554,3.959,3.9588,3.9665,3.9677,3.9683,3.9693,3.9671,3.9635,3.9625,3.9618,3.9604,3.9579,3.9759,3.9759,3.976,3.9541,3.9538,3.9606,3.9614,3.9644,3.9669,3.9742,3.9785,3.9785,3.9767,3.97,3.9692,3.9634,3.9616,3.9595,3.9573,3.9528,0,0]}]]